When you browse on this site, cookies collect data to enhance your experience and personalize the content and advertising you see.
Visit our Privacy Policy to learn more. By continuing to use the site, you agree to this use of cookies and data.
  • In Hungary
  • List of Countries
  • For 7 days
  • Water Temperature
  • Satellite Maps
  • Weather Map
  • News
  • Weather Widgets
  • user-avatar
    Login

    Hourly Weather Shimanovsk

    Today, 21 January, Monday

    Time Temperature Precipitation Wind Pressure Humidity
    00:00 -24°C° 0 mm 1 mps 728 mmHg 90%
    01:00 -27°C° 0 mm 2 mps 728 mmHg 91%
    02:00 -28°C° 0 mm 2 mps 728 mmHg 91%
    03:00 -28°C° 0 mm 2 mps 728 mmHg 91%
    04:00 -28°C° 0 mm 2 mps 728 mmHg 92%
    05:00 -28°C° 0 mm 2 mps 728 mmHg 92%
    06:00 -29°C° 0 mm 2 mps 728 mmHg 93%
    07:00 -29°C° 0 mm 2 mps 728 mmHg 93%
    08:00 -29°C° 0 mm 2 mps 728 mmHg 93%
    09:00 -29°C° 0 mm 2 mps 728 mmHg 91%
    10:00 -27°C° 0 mm 2 mps 729 mmHg 89%
    11:00 -25°C° 0 mm 2 mps 729 mmHg 87%
    12:00 -24°C° 0 mm 2 mps 729 mmHg 85%
    13:00 -23°C° 0 mm 2 mps 728 mmHg 84%
    14:00 -21°C° 0 mm 2 mps 728 mmHg 84%
    15:00 -20°C° 0 mm 2 mps 728 mmHg 84%
    16:00 -20°C° 0 mm 1 mps 728 mmHg 88%
    17:00 -21°C° 0 mm 1 mps 728 mmHg 92%
    18:00 -22°C° 0 mm 1 mps 727 mmHg 96%
    19:00 -23°C° 0 mm 0 mps 727 mmHg 97%
    20:00 -23°C° 0 mm 0 mps 727 mmHg 97%
    21:00 -23°C° 0 mm 0 mps 727 mmHg 98%
    22:00 -23°C° 0 mm 0 mps 727 mmHg 98%
    23:00 -23°C° 0 mm 1 mps 727 mmHg 98%

    Tomorrow, 22 January, Tuesday

    Time Temperature Precipitation Wind Pressure Humidity
    00:00 -22°C° 0 mm 1 mps 726 mmHg 98%
    01:00 -22°C° 0 mm 1 mps 726 mmHg 98%
    02:00 -22°C° 0 mm 1 mps 726 mmHg 98%
    03:00 -25°C° 0 mm 2 mps 726 mmHg 98%
    04:00 -25°C° 0 mm 2 mps 726 mmHg 98%
    05:00 -25°C° 0 mm 2 mps 726 mmHg 98%
    06:00 -26°C° 0 mm 2 mps 726 mmHg 98%
    07:00 -26°C° 0.1 mm 2 mps 726 mmHg 97%
    08:00 -26°C° 0.1 mm 2 mps 727 mmHg 97%
    09:00 -26°C° 0.1 mm 2 mps 727 mmHg 97%
    10:00 -26°C° 0 mm 2 mps 727 mmHg 94%
    11:00 -22°C° 0 mm 1 mps 728 mmHg 92%
    12:00 -21°C° 0 mm 1 mps 728 mmHg 90%
    13:00 -24°C° 0 mm 2 mps 728 mmHg 89%
    14:00 -23°C° 0 mm 2 mps 728 mmHg 88%
    15:00 -21°C° 0 mm 2 mps 728 mmHg 88%
    16:00 -23°C° 0 mm 2 mps 729 mmHg 90%
    17:00 -24°C° 0 mm 2 mps 729 mmHg 93%
    18:00 -25°C° 0 mm 2 mps 729 mmHg 96%
    19:00 -25°C° 0 mm 2 mps 729 mmHg 96%
    20:00 -26°C° 0 mm 2 mps 729 mmHg 96%
    21:00 -26°C° 0 mm 2 mps 729 mmHg 97%
    22:00 -26°C° 0 mm 2 mps 729 mmHg 97%
    23:00 -26°C° 0 mm 2 mps 729 mmHg 98%

    Day after tomorrow, 23 January, Wednesday

    Time Temperature Precipitation Wind Pressure Humidity
    00:00 -27°C° 0 mm 2 mps 729 mmHg 98%
    01:00 -27°C° 0 mm 2 mps 730 mmHg 98%
    02:00 -27°C° 0 mm 2 mps 730 mmHg 98%
    03:00 -27°C° 0 mm 2 mps 730 mmHg 97%
    04:00 -29°C° 0 mm 3 mps 731 mmHg 96%
    05:00 -29°C° 0 mm 3 mps 731 mmHg 94%
    06:00 -29°C° 0 mm 3 mps 731 mmHg 93%
    07:00 -27°C° 0 mm 3 mps 732 mmHg 92%
    08:00 -26°C° 0 mm 3 mps 732 mmHg 91%
    09:00 -27°C° 0 mm 4 mps 733 mmHg 90%
    10:00 -25°C° 0 mm 4 mps 733 mmHg 88%
    11:00 -24°C° 0 mm 5 mps 733 mmHg 86%
    12:00 -21°C° 0 mm 5 mps 734 mmHg 84%
    13:00 -20°C° 0 mm 5 mps 734 mmHg 84%
    14:00 -19°C° 0 mm 5 mps 734 mmHg 84%
    15:00 -19°C° 0 mm 5 mps 734 mmHg 84%
    16:00 -19°C° 0 mm 5 mps 734 mmHg 86%
    17:00 -20°C° 0 mm 5 mps 734 mmHg 87%
    18:00 -20°C° 0 mm 5 mps 735 mmHg 88%
    19:00 -20°C° 0 mm 5 mps 735 mmHg 88%
    20:00 -21°C° 0 mm 5 mps 735 mmHg 89%
    21:00 -21°C° 0 mm 5 mps 735 mmHg 89%
    22:00 -21°C° 0 mm 5 mps 735 mmHg 89%
    23:00 -22°C° 0 mm 5 mps 736 mmHg 89%

    24 January, Thursday

    Time Temperature Precipitation Wind Pressure Humidity
    00:00 -22°C° 0 mm 5 mps 736 mmHg 90%
    01:00 -22°C° 0 mm 4 mps 736 mmHg 90%
    02:00 -22°C° 0 mm 4 mps 736 mmHg 90%
    03:00 -23°C° 0 mm 4 mps 736 mmHg 90%
    04:00 -23°C° 0 mm 4 mps 736 mmHg 90%
    05:00 -23°C° 0 mm 4 mps 736 mmHg 90%
    06:00 -24°C° 0 mm 4 mps 736 mmHg 91%
    07:00 -24°C° 0 mm 4 mps 737 mmHg 90%
    08:00 -24°C° 0 mm 4 mps 737 mmHg 90%
    09:00 -24°C° 0 mm 4 mps 738 mmHg 90%
    10:00 -23°C° 0 mm 4 mps 738 mmHg 89%
    11:00 -22°C° 0 mm 4 mps 738 mmHg 88%
    12:00 -20°C° 0 mm 4 mps 738 mmHg 86%
    13:00 -19°C° 0 mm 4 mps 738 mmHg 86%
    14:00 -18°C° 0 mm 4 mps 738 mmHg 86%
    15:00 -18°C° 0 mm 4 mps 738 mmHg 86%
    16:00 -19°C° 0 mm 4 mps 738 mmHg 88%
    17:00 -19°C° 0 mm 4 mps 738 mmHg 89%
    18:00 -20°C° 0 mm 4 mps 739 mmHg 91%
    19:00 -20°C° 0 mm 4 mps 739 mmHg 91%
    20:00 -20°C° 0 mm 4 mps 739 mmHg 92%
    21:00 -20°C° 0 mm 4 mps 739 mmHg 92%
    22:00 -20°C° 0 mm 4 mps 739 mmHg 92%
    23:00 -20°C° 0 mm 4 mps 739 mmHg 92%

    25 January, Friday

    Time Temperature Precipitation Wind Pressure Humidity
    00:00 -20°C° 0 mm 4 mps 739 mmHg 92%
    01:00 -20°C° 0 mm 4 mps 739 mmHg 91%
    02:00 -22°C° 0 mm 4 mps 739 mmHg 91%
    03:00 -22°C° 0 mm 4 mps 739 mmHg 90%
    04:00 -23°C° 0 mm 4 mps 739 mmHg 90%
    05:00 -23°C° 0 mm 4 mps 739 mmHg 89%
    06:00 -24°C° 0 mm 4 mps 739 mmHg 89%
    07:00 -24°C° 0 mm 4 mps 739 mmHg 88%
    08:00 -24°C° 0 mm 4 mps 739 mmHg 88%
    09:00 -25°C° 0 mm 4 mps 740 mmHg 88%
    10:00 -23°C° 0 mm 4 mps 740 mmHg 86%
    11:00 -22°C° 0 mm 4 mps 740 mmHg 84%
    12:00 -20°C° 0 mm 4 mps 740 mmHg 82%
    13:00 -19°C° 0 mm 4 mps 740 mmHg 81%
    14:00 -18°C° 0 mm 4 mps 740 mmHg 81%
    15:00 -18°C° 0 mm 4 mps 740 mmHg 81%
    16:00 -19°C° 0 mm 4 mps 740 mmHg 84%
    17:00 -19°C° 0 mm 3 mps 740 mmHg 87%
    18:00 -21°C° 0 mm 3 mps 740 mmHg 90%
    19:00 -21°C° 0 mm 3 mps 740 mmHg 91%
    20:00 -22°C° 0 mm 3 mps 740 mmHg 92%
    21:00 -22°C° 0 mm 3 mps 740 mmHg 93%
    22:00 -22°C° 0 mm 3 mps 740 mmHg 93%
    23:00 -23°C° 0 mm 3 mps 740 mmHg 93%

    26 January, Saturday

    Time Temperature Precipitation Wind Pressure Humidity
    00:00 -23°C° 0 mm 3 mps 740 mmHg 92%
    01:00 -23°C° 0 mm 3 mps 740 mmHg 92%
    02:00 -21°C° 0 mm 2 mps 740 mmHg 92%
    03:00 -23°C° 0 mm 2 mps 740 mmHg 92%
    04:00 -23°C° 0 mm 2 mps 739 mmHg 92%
    05:00 -23°C° 0 mm 2 mps 739 mmHg 92%
    06:00 -23°C° 0 mm 2 mps 739 mmHg 92%
    07:00 -23°C° 0 mm 2 mps 739 mmHg 91%
    08:00 -23°C° 0 mm 2 mps 739 mmHg 90%
    09:00 -23°C° 0 mm 2 mps 739 mmHg 90%
    10:00 -20°C° 0 mm 2 mps 739 mmHg 86%
    11:00 -18°C° 0 mm 2 mps 739 mmHg 81%
    12:00 -16°C° 0 mm 2 mps 739 mmHg 77%
    13:00 -15°C° 0 mm 2 mps 738 mmHg 77%
    14:00 -14°C° 0 mm 2 mps 738 mmHg 77%
    15:00 -14°C° 0 mm 2 mps 737 mmHg 77%
    16:00 -15°C° 0 mm 2 mps 737 mmHg 81%
    17:00 -15°C° 0 mm 1 mps 736 mmHg 84%
    18:00 -16°C° 0 mm 1 mps 736 mmHg 88%
    19:00 -16°C° 0 mm 1 mps 736 mmHg 87%
    20:00 -17°C° 0 mm 1 mps 736 mmHg 87%
    21:00 -17°C° 0 mm 1 mps 735 mmHg 86%
    22:00 -17°C° 0 mm 1 mps 735 mmHg 87%
    23:00 -17°C° 0 mm 1 mps 734 mmHg 88%
    Show more